EW9741 Weather Reports


Display with metric or nautical units.
time (UTC)temp
F
wind
direction
speed
MPH
gust
MPH
rain 1hr
in
rain 24hr
in
rain mn
in
humidity
%
barometer
mb
20260905033040 74 117 0.0 0.0 0.00 0.01 0.01 88 1013.5
20260905031538 75 117 0.0 0.0 0.00 0.01 0.01 88 1013.6
20260905030040 75 117 0.0 0.0 0.00 0.01 0.01 87 1013.5
20260905024540 75 117 0.0 0.0 0.00 0.01 0.01 87 1013.5
20260905023035 75 149 0.0 0.0 0.00 0.01 0.01 86 1013.4
20260905021536 75 149 0.0 0.0 0.00 0.01 0.01 86 1013.4
20260905020052 76 149 0.0 0.0 0.00 0.01 0.01 86 1013.4
20260905014534 76 146 0.0 0.0 0.00 0.01 0.01 86 1013.1
20260905013039 76 234 0.0 0.0 0.00 0.01 0.01 86 1013.1
20260905011532 75 308 0.0 0.0 0.00 0.01 0.01 86 1012.9
20260905010032 76 308 0.0 0.0 0.00 0.01 0.01 86 1012.9
20260905004531 76 39 0.0 0.0 0.00 0.01 0.01 85 1012.8
20260905003031 76 39 0.0 0.0 0.00 0.01 0.01 84 1012.9
20260905001529 77 354 0.0 0.0 0.00 0.01 0.01 82 1012.7
20260905000028 79 354 0.0 0.0 0.00 0.01 0.01 79 1012.7
20260904234528 80 53 0.0 0.0 0.00 0.01 0.01 76 1012.9
20260904233028 81 53 0.0 0.0 0.00 0.01 0.01 75 1012.7
20260904231528 80 53 0.0 0.0 0.00 0.01 0.01 74 1012.7
20260904230027 80 78 0.0 0.0 0.00 0.01 0.01 76 1012.7
20260904224526 79 84 0.0 0.0 0.01 0.01 0.01 75 1012.8
20260904223026 79 105 0.0 0.0 0.01 0.01 0.01 76 1012.7
20260904221523 77 290 0.0 0.0 0.01 0.01 0.01 81 1013.4
20260904220026 77 53 0.0 0.0 0.01 0.01 0.01 77 1013.9
20260904214522 81 301 0.0 0.0 0.00 0.00 0.00 70 1014.5
20260904213028 81 326 0.0 0.0 0.00 0.00 0.00 69 1014.8
20260904211521 82 313 1.0 16.0 0.00 0.00 0.00 65 1014.4
20260904210025 85 52 4.0 17.0 0.00 0.00 0.00 59 1013.8
20260904204516 93 55 8.0 22.0 0.00 0.00 0.00 47 1013.8
20260904203014 95 314 0.0 10.0 0.00 0.00 0.00 47 1013.2
20260904201513 95 309 0.0 9.0 0.00 0.00 0.00 47 1013.4
20260904200013 96 268 0.0 2.0 0.00 0.00 0.00 47 1013.4
20260904194511 95 271 0.0 10.0 0.00 0.00 0.00 47 1013.4
20260904193009 94 320 0.0 9.0 0.00 0.00 0.00 49 1013.4
20260904191508 94 354 0.0 1.0 0.00 0.00 0.00 48 1013.6
20260904190008 94 285 1.0 13.0 0.00 0.00 0.00 49 1013.9
20260904184508 93 300 0.0 10.0 0.00 0.00 0.00 49 1014.0
20260904183007 93 335 0.0 9.0 0.00 0.00 0.00 50 1014.1
20260904181506 94 292 0.0 8.0 0.00 0.00 0.00 48 1014.3
20260904180010 94 303 0.0 0.0 0.00 0.00 0.00 48 1014.6
20260904174507 94 319 1.0 9.0 0.00 0.00 0.00 49 1014.8
20260904173007 93 269 0.0 0.0 0.00 0.00 0.00 50 1015.1
20260904171506 93 345 0.0 11.0 0.00 0.00 0.00 51 1015.2
20260904170005 93 302 0.0 7.0 0.00 0.00 0.00 50 1015.3
20260904164505 93 307 0.0 0.0 0.00 0.00 0.00 54 1015.4
20260904163004 92 311 0.0 0.0 0.00 0.00 0.00 54 1015.4
20260904161504 92 319 0.0 6.0 0.00 0.00 0.00 53 1015.4
20260904160004 91 326 0.0 13.0 0.00 0.00 0.00 54 1015.5
20260904154502 92 286 0.0 0.0 0.00 0.00 0.00 55 1015.4
20260904153002 91 257 0.0 7.0 0.00 0.00 0.00 56 1015.4
20260904151501 91 296 0.0 0.0 0.00 0.00 0.00 58 1015.3
20260904150008 90 268 0.0 0.0 0.00 0.00 0.00 61 1015.4
20260904144502 89 253 0.0 8.0 0.00 0.00 0.00 62 1015.3
20260904143001 88 290 0.0 0.0 0.00 0.00 0.00 64 1015.3
20260904141501 87 321 0.0 5.0 0.00 0.00 0.00 66 1015.3
20260904140100 86 302 0.0 0.0 0.00 0.00 0.00 68 1015.2
20260904134607 85 279 0.0 0.0 0.00 0.00 0.00 70 1015.2
20260904133100 85 288 0.0 0.0 0.00 0.00 0.00 70 1015.4
20260904131634 84 300 0.0 0.0 0.00 0.00 0.00 72 1015.3
20260904130100 83 265 0.0 0.0 0.00 0.00 0.00 76 1015.4
20260904124559 82 204 0.0 0.0 0.00 0.00 0.00 77 1015.5
20260904123103 81 245 0.0 0.0 0.00 0.00 0.00 79 1015.4
20260904121556 79 239 0.0 0.0 0.00 0.00 0.00 82 1015.2
20260904120056 77 234 0.0 0.0 0.00 0.00 0.00 85 1015.0
20260904114556 0 0.0 0.0 0.00 0.00 0.00 1014.9
20260904113054 0 0.0 0.0 0.00 0.00 0.00 1014.8
20260904111547 0 0.0 0.0 0.00 0.00 0.00 1014.6
20260904110043 0 0.0 0.0 0.00 0.00 0.00 1014.3
20260904104539 0 0.0 0.0 0.00 0.00 0.00 1014.1
20260904103048 74 155 0.0 0.0 0.00 0.00 0.00 89 1014.2
20260904101537 75 153 0.0 0.0 0.00 0.00 0.00 89 1014.2
20260904100033 75 153 0.0 0.0 0.00 0.00 0.00 88 1014.1
20260904094531 76 153 0.0 0.0 0.00 0.00 0.00 87 1014.1
20260904093031 76 217 0.0 0.0 0.00 0.00 0.00 87 1014.0
20260904091531 76 214 0.0 0.0 0.00 0.00 0.00 88 1014.1
20260904090030 76 214 0.0 0.0 0.00 0.00 0.00 87 1014.1
20260904084530 76 214 0.0 0.0 0.00 0.00 0.00 87 1014.2
20260904083038 77 214 0.0 0.0 0.00 0.00 0.00 87 1014.2
20260904081529 77 214 0.0 0.0 0.00 0.00 0.00 86 1014.2
20260904080029 77 214 0.0 0.0 0.00 0.00 0.00 85 1014.1
20260904074545 76 214 0.0 0.0 0.00 0.00 0.00 87 1014.2
20260904073035 76 214 0.0 0.0 0.00 0.00 0.00 87 1014.3
20260904071528 76 214 0.0 0.0 0.00 0.00 0.00 86 1014.4
20260904070029 76 214 0.0 0.0 0.00 0.00 0.00 86 1014.5
20260904064533 77 214 0.0 0.0 0.00 0.00 0.00 85 1014.6
20260904063024 78 214 0.0 0.0 0.00 0.00 0.00 83 1014.6
20260904061524 78 214 0.0 0.0 0.00 0.00 0.00 81 1014.7
20260904060024 79 214 0.0 0.0 0.00 0.00 0.00 79 1014.7
20260904054517 80 214 0.0 0.0 0.00 0.00 0.00 77 1014.7
20260904053018 81 214 0.0 0.0 0.00 0.00 0.00 75 1014.7
20260904051513 81 240 0.0 0.0 0.00 0.00 0.00 74 1014.8
20260904050013 82 236 0.0 0.0 0.00 0.00 0.00 74 1014.8
20260904044513 82 217 0.0 0.0 0.00 0.00 0.00 74 1014.8
20260904043016 82 231 0.0 0.0 0.00 0.00 0.00 74 1014.8
20260904041514 82 222 0.0 0.0 0.00 0.00 0.00 74 1014.7
20260904040012 82 218 0.0 0.0 0.00 0.00 0.00 73 1014.7
20260904034511 82 218 0.0 0.0 0.00 0.00 0.00 73 1014.6